Location: Cahas Mountain Overlook
(37.0833°N, 80.1000°W)
Time: 19:33:56
(UTC-04:00)

Tiros 1 - Pass Details

Date: 10 February 2026
Orbit: 618 x 649 km, 48.4° (Epoch: 13 March)

Event Time Altitude Azimuth Distance (km) Brightness Sun altitude
Rises 10:22:10 0° 208° (SSW) 2,889 10.8 30.0°
Reaches altitude 10° 10:24:40 10° 198° (SSW) 1,981 10.2 30.3°
Maximum altitude 10:28:42 32° 135° (SE) 1,069 11.1 30.8°
Drops below altitude 10° 10:32:44 10° 73° (ENE) 1,978 10.0 31.2°
Sets 10:35:13 0° 63° (ENE) 2,885 10.6 31.5°
